[[{"header":{"parameterUnit":"m.s-1","parameterCategory":2,"la1":30.2992,"la2":30.254,"lo1":-89.0895,"lo2":-89.0443,"dy":0.0025,"dx":0.0025,"nx":19,"ny":19,"refTime":"2026-05-09T03:00:00:Z","depth":"0","parameterNumber":2,"parameterNumberName":"U-component_of_CURRENTS"},"data":[0,0,0,0.1845,0.1847,0.1972,0.1973,0.2129,0.213,0,0,0,0,0,0,0,0,0,0,0,0.1795,0.1796,0.1845,0.1847,0.1972,0.1973,0.2129,0.213,0,0,0,0,0,0,0,0,0,0,0,0.1795,0.1795,0.1796,0.1848,0.1972,0.1973,0.2128,0.2038,0,0,0,0,0,0,0,0,0,0,0.1918,0.185,0.1795,0.1796,0.1848,0.1972,0.1973,0.2034,0.2044,0.2067,0,0.2075,0,0.2104,0.2139,0.214,0,0,0,0.186,0.1842,0.1893,0.1796,0.1849,0.1972,0.192,0.204,0.2051,0.208,0.2078,0.2084,0.2107,0.214,0.2141,0.2164,0.2164,0,0,0.1853,0.1807,0.1885,0.1899,0.1868,0.1915,0.1923,0.2046,0.2041,0.2078,0.2088,0.2109,0.2141,0.2142,0.2165,0.2164,0,0,0,0.1825,0.1801,0.1849,0.1892,0.1914,0.1919,0.1928,0.2036,0.2056,0.209,0.2111,0.2142,0.2144,0.2166,0.2165,0.2111,0,0,0,0.1821,0.1785,0.1846,0.1818,0.1911,0.1972,0.1914,0.2048,0.2063,0.211,0.2142,0.2145,0.2167,0.2165,0.2115,0.2122,0,0,0,0.1792,0.1781,0.1795,0.1815,0.1867,0.1971,0.1999,0.2052,0.2075,0.214,0.2145,0.2167,0.2166,0.2117,0.2126,0.2131,0,0,0,0.1743,0.1758,0.1793,0.1817,0.1865,0.1931,0.1999,0.2046,0.2093,0.2143,0.2167,0.2165,0.2118,0.2128,0.2133,0.2172,0.2167,0,0,0.1741,0.1756,0.1775,0.1811,0.1855,0.1916,0.1944,0.2029,0.2071,0.2131,0.2132,0.2113,0.2126,0.2131,0.2066,0.2064,0,0,0,0.1762,0.1767,0.1789,0.1821,0.1878,0.1912,0.1981,0.2002,0.2043,0.209,0.2091,0.2101,0.2106,0.2132,0.213,0.2032,0.2156,0.2157,0.2157,0.1688,0.1738,0.1762,0.1818,0.1845,0.1903,0.1932,0.1966,0.2007,0.1991,0.2039,0.1985,0.2008,0.2008,0.1904,0.2002,0.2002,0.2002,0.2002,0.1688,0.1719,0.1742,0.1786,0.1817,0.1838,0.189,0.1911,0.1947,0.1965,0.1972,0.2051,0.2003,0.1893,0.1998,0.1998,0.1999,0.1999,0.2,0.1667,0.1691,0.171,0.1755,0.1773,0.1817,0.1846,0.188,0.1914,0.1921,0.1977,0.1979,0.1904,0.1924,0.1924,0.1924,0.1924,0.1924,0.1924,0.1652,0.1675,0.1699,0.1739,0.1757,0.1784,0.1833,0.1863,0.1916,0.1943,0.1944,0.1863,0.1963,0.1991,0.1924,0.1924,0.1924,0.1924,0.1924,0.1657,0.1667,0.1701,0.172,0.1755,0.1758,0.1811,0.1874,0.1916,0.1951,0.1855,0.1962,0.1999,0.2001,0.203,0.1978,0.1978,0.1978,0.1978,0.1651,0.1665,0.1691,0.171,0.1732,0.1741,0.1743,0.1797,0.1841,0.1834,0.1817,0.1804,0.1807,0.1831,0.1837,0.1861,0.1767,0.1767,0.1766,0.1644,0.1658,0.1662,0.1687,0.1711,0.1699,0.1661,0.1651,0.1736,0.1744,0.1665,0.1674,0.164,0.1652,0.1683,0.1699,0.1739,0,0]},{"header":{"parameterUnit":"m.s-1","parameterCategory":2,"la1":30.2992,"la2":30.254,"lo1":-89.0895,"lo2":-89.0443,"dy":0.0025,"dx":0.0025,"nx":19,"ny":19,"refTime":"2026-05-09T03:00:00:Z","depth":"0","parameterNumber":3,"parameterNumberName":"V-component_of_CURRENTS"},"data":[0,0,0,-0.0282,-0.0284,-0.0343,-0.0343,-0.0356,-0.0356,0,0,0,0,0,0,0,0,0,0,0,-0.0258,-0.0258,-0.0282,-0.0284,-0.0343,-0.0343,-0.0356,-0.0356,0,0,0,0,0,0,0,0,0,0,0,-0.0258,-0.0258,-0.0258,-0.0284,-0.0343,-0.0343,-0.0356,-0.0327,0,0,0,0,0,0,0,0,0,0,-0.0277,-0.0257,-0.0258,-0.0258,-0.0284,-0.0343,-0.0343,-0.0327,-0.0329,-0.0311,0,-0.032,0,-0.0339,-0.0356,-0.0356,0,0,0,-0.0284,-0.0255,-0.0278,-0.0258,-0.0285,-0.0343,-0.0316,-0.0329,-0.0331,-0.0314,-0.0321,-0.0322,-0.0339,-0.0356,-0.0356,-0.0336,-0.0336,0,0,-0.0281,-0.0261,-0.0276,-0.028,-0.0299,-0.0315,-0.0318,-0.0331,-0.0327,-0.0321,-0.0323,-0.0339,-0.0356,-0.0356,-0.0336,-0.0336,0,0,0,-0.0271,-0.0258,-0.0282,-0.0279,-0.0295,-0.0316,-0.0321,-0.0326,-0.0337,-0.0323,-0.034,-0.0356,-0.0356,-0.0336,-0.0336,-0.0317,0,0,0,-0.0269,-0.0253,-0.0281,-0.0269,-0.0295,-0.0319,-0.0316,-0.0336,-0.0338,-0.034,-0.0356,-0.0355,-0.0336,-0.0336,-0.0318,-0.0273,0,0,0,-0.0255,-0.0252,-0.026,-0.0268,-0.0295,-0.0319,-0.033,-0.0337,-0.0348,-0.0356,-0.0355,-0.0337,-0.0336,-0.0319,-0.0276,-0.0191,0,0,0,-0.0231,-0.0242,-0.0259,-0.0277,-0.0294,-0.033,-0.0331,-0.0352,-0.0359,-0.0356,-0.0336,-0.0336,-0.0319,-0.0277,-0.0193,-0.0065,-0.0043,0,0,-0.0233,-0.0241,-0.0255,-0.0272,-0.0302,-0.0322,-0.0335,-0.0344,-0.0345,-0.0328,-0.0328,-0.0317,-0.0276,-0.0191,-0.0045,-0.0022,0,0,0,-0.0249,-0.0255,-0.0269,-0.0289,-0.0319,-0.032,-0.0344,-0.0339,-0.0326,-0.0348,-0.0315,-0.0289,-0.0236,-0.0165,-0.0148,-0.0105,-0.0334,-0.0334,-0.0334,-0.0205,-0.0237,-0.0252,-0.0287,-0.0301,-0.0318,-0.0307,-0.0297,-0.0321,-0.0306,-0.0274,-0.0193,-0.012,-0.0105,-0.0064,-0.0293,-0.0293,-0.0293,-0.0293,-0.0193,-0.0191,-0.0226,-0.025,-0.0258,-0.0262,-0.0254,-0.0257,-0.0199,-0.0248,-0.0198,-0.015,-0.0084,-0.0048,-0.0292,-0.0292,-0.0292,-0.0292,-0.0292,-0.0143,-0.0144,-0.0171,-0.019,-0.0186,-0.0205,-0.0141,-0.0151,-0.0145,-0.0109,0.0007,0.0008,0.0046,-0.0078,-0.0077,-0.0077,-0.0076,-0.0076,-0.0076,-0.0065,-0.0096,-0.0091,-0.012,-0.0115,-0.009,-0.0061,-0.0008,0.0071,0.0077,0.0078,0.0093,-0.0125,-0.0126,-0.0067,-0.0069,-0.007,-0.0071,-0.0071,0.0,-0.0006,-0.0002,0.0001,0.0015,0.0087,0.01,0.0247,0.0297,0.0373,0.0358,0.0188,0.0215,0.0201,0.0209,0.0352,0.0352,0.0352,0.0352,0.0067,0.0057,0.0081,0.0103,0.0144,0.0176,0.0364,0.0471,0.0557,0.0602,0.0552,0.0508,0.0489,0.0527,0.0505,0.0517,0.0735,0.0735,0.0736,0.0115,0.0111,0.0147,0.0153,0.0198,0.0293,0.0488,0.0685,0.0783,0.0748,0.0588,0.0572,0.0495,0.0462,0.0504,0.0471,0.0482,0,0]}],[{"header":{"parameterUnit":"m.s-1","parameterCategory":2,"la1":30.2992,"la2":30.254,"lo1":-89.0895,"lo2":-89.0443,"dy":0.0025,"dx":0.0025,"nx":19,"ny":19,"refTime":"2026-05-09T03:00:00:Z","depth":"2","parameterNumber":2,"parameterNumberName":"U-component_of_CURRENTS"},"data":[0,0,0,0.077,0.077,0.0797,0.0797,0.0847,0.0847,0,0,0,0,0,0,0,0,0,0,0,0.0773,0.0773,0.077,0.077,0.0797,0.0797,0.0847,0.0847,0,0,0,0,0,0,0,0,0,0,0,0.0773,0.0773,0.0773,0.077,0.0797,0.0797,0.0847,0.0827,0,0,0,0,0,0,0,0,0,0,0.08,0.0811,0.0773,0.0773,0.077,0.0797,0.0797,0.0826,0.0828,0.0834,0,0.0837,0,0.0831,0.085,0.085,0,0,0,0.0786,0.0809,0.0795,0.0773,0.077,0.0796,0.0789,0.0827,0.083,0.0837,0.0837,0.0839,0.0832,0.085,0.085,0.0957,0.0958,0,0,0.0785,0.08,0.0793,0.0796,0.0775,0.0788,0.079,0.0829,0.0843,0.0838,0.084,0.0833,0.085,0.085,0.0956,0.0957,0,0,0,0.0769,0.0799,0.0784,0.0795,0.0792,0.0789,0.079,0.0842,0.0831,0.084,0.0833,0.085,0.0851,0.0955,0.0956,0.1039,0,0,0,0.0769,0.0788,0.0784,0.0796,0.0791,0.0818,0.0804,0.0829,0.0833,0.0833,0.085,0.0851,0.0954,0.0956,0.1034,0.1055,0,0,0,0.0772,0.0789,0.0786,0.0796,0.0796,0.0817,0.081,0.083,0.0828,0.085,0.0851,0.0953,0.0955,0.103,0.1048,0.1075,0,0,0,0.0794,0.0802,0.0787,0.0802,0.0796,0.0817,0.081,0.0847,0.0872,0.085,0.0954,0.0956,0.1029,0.1045,0.1071,0.1033,0.1046,0,0,0.0812,0.0805,0.0811,0.0797,0.0819,0.0814,0.0873,0.0905,0.0909,0.0942,0.0945,0.1036,0.1048,0.1074,0.116,0.1168,0,0,0,0.0822,0.0832,0.0835,0.0848,0.0849,0.0897,0.0914,0.0943,0.1018,0.0928,0.1057,0.1062,0.1076,0.1047,0.1055,0.0966,0.0966,0.0966,0.0966,0.0881,0.0872,0.0897,0.0899,0.0924,0.0967,0.1021,0.1071,0.1059,0.1124,0.1146,0.1244,0.1217,0.1221,0.1173,0.1173,0.1174,0.1174,0.1174,0.0918,0.0924,0.095,0.0977,0.1015,0.1075,0.1145,0.1174,0.1263,0.1242,0.1251,0.1156,0.1234,0.1181,0.118,0.1179,0.1178,0.1178,0.1177,0.0946,0.0944,0.0978,0.1023,0.1101,0.1149,0.1218,0.1285,0.1333,0.1375,0.1317,0.1315,0.1264,0.138,0.1381,0.1381,0.1381,0.1381,0.1381,0.0947,0.0973,0.0995,0.1062,0.1101,0.1172,0.1267,0.1303,0.1365,0.1397,0.1396,0.1312,0.1305,0.1275,0.1385,0.1384,0.1384,0.1384,0.1383,0.0929,0.0948,0.0967,0.1001,0.1076,0.1102,0.1204,0.1279,0.1345,0.1365,0.14,0.1398,0.1357,0.1349,0.132,0.1435,0.1435,0.1435,0.1435,0.0903,0.0915,0.0916,0.0937,0.0983,0.1053,0.106,0.1071,0.1179,0.1174,0.1184,0.112,0.1125,0.1066,0.1065,0.1027,0.1065,0.1064,0.1063,0.0865,0.0872,0.0852,0.0881,0.093,0.0971,0.0947,0.082,0.0798,0.1038,0.1017,0.143,0.1364,0.1362,0.1289,0.128,0.1227,0,0]},{"header":{"parameterUnit":"m.s-1","parameterCategory":2,"la1":30.2992,"la2":30.254,"lo1":-89.0895,"lo2":-89.0443,"dy":0.0025,"dx":0.0025,"nx":19,"ny":19,"refTime":"2026-05-09T03:00:00:Z","depth":"2","parameterNumber":3,"parameterNumberName":"V-component_of_CURRENTS"},"data":[0,0,0,-0.0332,-0.0333,-0.0378,-0.0378,-0.0339,-0.0338,0,0,0,0,0,0,0,0,0,0,0,-0.0316,-0.0316,-0.0332,-0.0333,-0.0378,-0.0378,-0.0339,-0.0338,0,0,0,0,0,0,0,0,0,0,0,-0.0316,-0.0316,-0.0317,-0.0333,-0.0378,-0.0378,-0.0339,-0.0328,0,0,0,0,0,0,0,0,0,0,-0.0296,-0.0291,-0.0316,-0.0317,-0.0333,-0.0378,-0.0378,-0.0328,-0.0328,-0.0291,0,-0.0305,0,-0.032,-0.0333,-0.0333,0,0,0,-0.0329,-0.0291,-0.0309,-0.0317,-0.0334,-0.0378,-0.0357,-0.0329,-0.0329,-0.0291,-0.0305,-0.0304,-0.0319,-0.0333,-0.0333,-0.0284,-0.0284,0,0,-0.0326,-0.0314,-0.031,-0.031,-0.0352,-0.0355,-0.0358,-0.033,-0.0326,-0.0305,-0.0304,-0.0319,-0.0332,-0.0332,-0.0284,-0.0284,0,0,0,-0.0322,-0.0312,-0.0333,-0.0311,-0.0326,-0.0357,-0.036,-0.0328,-0.0337,-0.0303,-0.0318,-0.0332,-0.0331,-0.0284,-0.0284,-0.0293,0,0,0,-0.032,-0.031,-0.0332,-0.0323,-0.0328,-0.034,-0.0358,-0.0339,-0.0337,-0.0318,-0.0332,-0.0331,-0.0284,-0.0284,-0.0293,-0.0271,0,0,0,-0.0313,-0.0309,-0.0318,-0.0323,-0.0346,-0.0341,-0.0349,-0.034,-0.0345,-0.0333,-0.033,-0.0284,-0.0284,-0.0293,-0.0271,-0.0215,0,0,0,-0.0292,-0.0297,-0.0318,-0.0321,-0.0345,-0.0353,-0.035,-0.0357,-0.035,-0.0332,-0.0284,-0.0284,-0.0293,-0.0272,-0.0216,-0.0082,-0.0066,0,0,-0.0285,-0.0296,-0.0297,-0.0316,-0.0323,-0.0346,-0.034,-0.0339,-0.0332,-0.0285,-0.0285,-0.0293,-0.0271,-0.0215,-0.0079,-0.0062,0,0,0,-0.0285,-0.0291,-0.0293,-0.0306,-0.0316,-0.0323,-0.0334,-0.0328,-0.0318,-0.0329,-0.0289,-0.0274,-0.0238,-0.0161,-0.0148,-0.0283,-0.0283,-0.0283,-0.0283,-0.0252,-0.0269,-0.0272,-0.0295,-0.0297,-0.0309,-0.0303,-0.0297,-0.0302,-0.0304,-0.0281,-0.0239,-0.0159,-0.0147,-0.0292,-0.0292,-0.0292,-0.0292,-0.0292,-0.0243,-0.0247,-0.0267,-0.0284,-0.0291,-0.0292,-0.0273,-0.0283,-0.0242,-0.0273,-0.0238,-0.0173,-0.0133,-0.0293,-0.0293,-0.0293,-0.0293,-0.0293,-0.0293,-0.0219,-0.0227,-0.0251,-0.0276,-0.0283,-0.0288,-0.0244,-0.0245,-0.023,-0.021,-0.0094,-0.0092,-0.0215,-0.0193,-0.0193,-0.0193,-0.0192,-0.0192,-0.0192,-0.0188,-0.0212,-0.0231,-0.0263,-0.0272,-0.0261,-0.0225,-0.0177,-0.0092,-0.0063,-0.0062,-0.0204,-0.0208,-0.0207,-0.0187,-0.0188,-0.0189,-0.0189,-0.0189,-0.0161,-0.0179,-0.02,-0.0216,-0.0224,-0.0139,-0.0126,0.0029,0.0067,0.0145,0.0039,0.0032,0.0065,0.0056,0.0063,0.0153,0.0153,0.0153,0.0153,-0.0134,-0.0147,-0.0163,-0.0165,-0.0142,-0.0076,0.0154,0.0336,0.0374,0.0425,0.0413,0.0406,0.0387,0.0436,0.0418,0.0432,0.0618,0.0619,0.062,-0.0113,-0.0126,-0.0116,-0.0129,-0.01,0.0036,0.0341,0.0594,0.0666,0.0637,0.048,0.0187,0.0142,0.0125,0.0171,0.0154,0.0164,0,0]}],[{"header":{"parameterUnit":"m.s-1","parameterCategory":2,"la1":30.2992,"la2":30.254,"lo1":-89.0895,"lo2":-89.0443,"dy":0.0025,"dx":0.0025,"nx":19,"ny":19,"refTime":"2026-05-09T03:00:00:Z","depth":"4","parameterNumber":2,"parameterNumberName":"U-component_of_CURRENTS"},"data":[0,0,0,-0.0309,-0.031,-0.0337,-0.0337,-0.0321,-0.0321,0,0,0,0,0,0,0,0,0,0,0,-0.0311,-0.0311,-0.0309,-0.031,-0.0337,-0.0337,-0.0321,-0.0321,0,0,0,0,0,0,0,0,0,0,0,-0.0311,-0.0311,-0.0311,-0.031,-0.0337,-0.0337,-0.0321,-0.0315,0,0,0,0,0,0,0,0,0,0,-0.0295,-0.0307,-0.0311,-0.0311,-0.031,-0.0337,-0.0337,-0.0315,-0.0315,-0.0292,0,-0.0303,0,-0.0302,-0.0318,-0.0318,0,0,0,-0.0316,-0.0308,-0.0306,-0.0311,-0.031,-0.0337,-0.0327,-0.0316,-0.0316,-0.0292,-0.0302,-0.0302,-0.0302,-0.0318,-0.0317,-0.0207,-0.0206,0,0,-0.0315,-0.0321,-0.0306,-0.0306,-0.0324,-0.0326,-0.0327,-0.0316,-0.0323,-0.0302,-0.0302,-0.0301,-0.0317,-0.0317,-0.0208,-0.0207,0,0,0,-0.0306,-0.0321,-0.0321,-0.0307,-0.0311,-0.0326,-0.0328,-0.0324,-0.0322,-0.0301,-0.0301,-0.0317,-0.0317,-0.0209,-0.0207,-0.0141,0,0,0,-0.0305,-0.0314,-0.032,-0.0325,-0.0311,-0.0325,-0.0336,-0.0323,-0.0322,-0.0301,-0.0317,-0.0316,-0.021,-0.0208,-0.0145,-0.0134,0,0,0,-0.0308,-0.0315,-0.0318,-0.0325,-0.0332,-0.0326,-0.0324,-0.0324,-0.032,-0.0318,-0.0316,-0.021,-0.0208,-0.0149,-0.0139,-0.0078,0,0,0,-0.0313,-0.0316,-0.0319,-0.0323,-0.0332,-0.032,-0.0324,-0.0303,-0.0295,-0.0317,-0.0209,-0.0207,-0.015,-0.0142,-0.0082,-0.0225,0,0,0,-0.0313,-0.0316,-0.0316,-0.0319,-0.0311,-0.0316,-0.0278,-0.0261,-0.0253,-0.0213,-0.0211,-0.0144,-0.0139,-0.0079,-0.0098,0,0,0,0,-0.0313,-0.0313,-0.0312,-0.0313,-0.0305,-0.0278,-0.0263,-0.0227,-0.016,-0.0238,-0.0119,-0.0118,-0.0082,-0.0175,-0.0197,-0.0197,-0.0197,-0.0198,-0.0198,-0.0305,-0.0304,-0.0301,-0.0296,-0.0286,-0.0233,-0.0189,-0.0131,-0.0126,-0.0063,-0.0045,0.0069,-0.0023,-0.0014,-0.0014,-0.0013,-0.0013,-0.0013,-0.0013,-0.0291,-0.0293,-0.0286,-0.0278,-0.0246,-0.0197,-0.0102,-0.0054,0.0057,0.0036,0.0069,-0.0075,-0.0006,-0.0007,-0.0008,-0.0009,-0.001,-0.001,-0.001,-0.0286,-0.029,-0.0281,-0.0267,-0.0205,-0.0139,-0.0038,0.0058,0.0116,0.0164,0.0091,0.0121,0.0093,0.0207,0.0207,0.0208,0.0208,0.0208,0.0209,-0.029,-0.0286,-0.0275,-0.0246,-0.0215,-0.0128,0.0026,0.0065,0.0146,0.0147,0.0203,0.0143,0.0136,0.0107,0.0214,0.0213,0.0212,0.0212,0.0211,-0.0303,-0.0297,-0.0282,-0.0264,-0.0204,-0.0151,-0.0018,0.0054,0.0112,0.0102,0.0136,0.0138,0.0099,0.0093,0.006,0.0158,0.0156,0.0155,0,-0.0313,-0.0309,-0.0288,-0.0264,-0.0236,-0.0165,-0.0122,-0.007,0.0017,0.0038,0.0085,0.0124,0.0124,0.0075,0.0068,0.0026,0,0,0,-0.0321,-0.0312,-0.0297,-0.0274,-0.0244,-0.0193,-0.0108,-0.0078,0.0017,-0.0024,0.0119,0.0128,0.0047,0.023,0.0176,0.0167,0.0116,0,0]},{"header":{"parameterUnit":"m.s-1","parameterCategory":2,"la1":30.2992,"la2":30.254,"lo1":-89.0895,"lo2":-89.0443,"dy":0.0025,"dx":0.0025,"nx":19,"ny":19,"refTime":"2026-05-09T03:00:00:Z","depth":"4","parameterNumber":3,"parameterNumberName":"V-component_of_CURRENTS"},"data":[0,0,0,0.0456,0.0458,0.0556,0.0557,0.0728,0.073,0,0,0,0,0,0,0,0,0,0,0,0.0435,0.0436,0.0456,0.0458,0.0556,0.0557,0.0728,0.073,0,0,0,0,0,0,0,0,0,0,0,0.0435,0.0436,0.0436,0.0458,0.0556,0.0557,0.0728,0.0645,0,0,0,0,0,0,0,0,0,0,0.0546,0.0523,0.0435,0.0436,0.0458,0.0556,0.0557,0.0641,0.0651,0.0693,0,0.071,0,0.0714,0.0741,0.0742,0,0,0,0.0472,0.0515,0.0529,0.0437,0.0459,0.0556,0.0516,0.0646,0.0657,0.0705,0.0712,0.0718,0.0717,0.0742,0.0743,0.0852,0.0851,0,0,0.0466,0.0468,0.0521,0.0536,0.049,0.0512,0.0518,0.0652,0.0674,0.0713,0.0722,0.072,0.0743,0.0745,0.0852,0.0852,0,0,0,0.0441,0.0464,0.0474,0.0529,0.0538,0.0515,0.0522,0.0669,0.0669,0.0724,0.0722,0.0744,0.0746,0.0852,0.0852,0.086,0,0,0,0.0439,0.0448,0.0472,0.0476,0.0535,0.06,0.0536,0.066,0.0674,0.0721,0.0744,0.0748,0.0852,0.0852,0.086,0.0868,0,0,0,0.043,0.0447,0.0456,0.0475,0.0508,0.0597,0.0606,0.0663,0.0673,0.0742,0.0749,0.0852,0.0852,0.086,0.0868,0.0852,0,0,0,0.043,0.0445,0.0457,0.0482,0.0507,0.0582,0.0605,0.07,0.0766,0.0745,0.0852,0.0852,0.086,0.0867,0.0852,0.0747,0,0,0,0.044,0.0447,0.0458,0.047,0.0508,0.0569,0.0664,0.0769,0.0767,0.0814,0.0817,0.086,0.0868,0.0852,0.0737,0,0,0,0,0.0455,0.0469,0.0481,0.0514,0.0564,0.0649,0.075,0.0774,0.0813,0.0798,0.0854,0.0858,0.0848,0.0787,0.0851,0.0851,0.0851,0.0851,0.0851,0.0477,0.0489,0.052,0.0557,0.0624,0.074,0.0794,0.0844,0.0857,0.0854,0.0861,0.085,0.0785,0.0853,0.0853,0.0853,0.0853,0.0853,0.0853,0.0492,0.0503,0.0562,0.061,0.0697,0.0821,0.0876,0.089,0.0875,0.0864,0.0853,0.0795,0.0854,0.0854,0.0854,0.0854,0.0854,0.0854,0.0854,0.0492,0.0496,0.0551,0.0639,0.0784,0.0897,0.0963,0.0944,0.0889,0.0868,0.078,0.0849,0.0853,0.0852,0.0852,0.0851,0.0851,0.0851,0.0851,0.046,0.0501,0.0564,0.0683,0.0787,0.0909,0.0996,0.097,0.0906,0.0777,0.0862,0.0849,0.0849,0.0852,0.0851,0.0851,0.0851,0.0851,0.0851,0.0423,0.046,0.0538,0.0627,0.0811,0.0874,0.0994,0.0911,0.085,0.0736,0.0722,0.0728,0.0712,0.0716,0.0714,0.0672,0.067,0.0669,0,0.0393,0.0414,0.0519,0.0615,0.0703,0.0827,0.0785,0.079,0.0684,0.0619,0.0796,0.0781,0.0783,0.077,0.0771,0.077,0,0,0,0.0366,0.041,0.047,0.0562,0.0653,0.0646,0.0757,0.0698,0.0713,0.066,0.0635,0.0644,0.0873,0.0849,0.0841,0.0841,0.0846,0,0]}]]